This demonstration page uses our WeatherBlox Daily Observations layout. Learn more.

Left ArrowRight Arrow

41.12389, -100.76542

Hourly Observations for March 19, 2021

Temp ( °F °C ) Dew Point ( °F °C ) Humidity (%) Winds ( mph kmh ) Pressure ( in mb ) Visibility ( mi km ) Precip ( " mm )
12:53 am 00:53 Clear 25 -3.9 21 -6.1 85 85 ESE 7 11 30.44 1031 10 16 0.00 0.00
1:53 am 01:53 Clear 26 -3.3 22 -5.6 84 84 E 7 11 30.45 1031 10 16 0.00 0.00
2:53 am 02:53 Clear 24 -4.4 21 -6.1 88 88 ESE 7 11 30.45 1031 10 16 0.00 0.00
3:53 am 03:53 Clear 24 -4.4 20 -6.7 84 84 ESE 6 9 30.43 1031 10 16 0.00 0.00
4:53 am 04:53 Clear 23 -5 20 -6.7 88 88 SE 3 6 30.42 1030 9 14 0.00 0.00
5:23 am 05:23 Clear with Mist and Fog 22 -5.6 19 -7.2 89 89 ESE 5 7 30.52 1034 2 3 0.00 0.00
5:32 am 05:32 Clear 22 -5.6 19 -7.2 89 89 ESE 5 7 30.52 1034 10 16 0.00 0.00
5:53 am 05:53 Clear 21 -6.1 18 -7.8 88 88 ESE 6 9 30.42 1030 10 16 0.00 0.00
6:53 am 06:53 Clear 23 -5 20 -6.7 88 88 E 6 9 30.42 1030 10 16 0.00 0.00
7:53 am 07:53 Sunny 24 -4.4 20 -6.7 84 84 E 5 7 30.43 1031 10 16 0.00 0.00
8:53 am 08:53 Sunny 29 -1.7 25 -3.9 85 85 ESE 7 11 30.43 1031 10 16 0.00 0.00
9:53 am 09:53 Sunny 34 1.1 29 -1.7 82 82 SE 3 6 30.43 1031 10 16 0.00 0.00
10:53 am 10:53 Sunny 41 5 33 0.6 73 73 SSW 10 17 30.42 1030 10 16 0.00 0.00
11:53 am 11:53 Mostly Sunny 47 8.3 33 0.6 59 59 S 14 22 30.38 1029 10 16 0.00 0.00
12:53 pm 12:53 Sunny 51 10.6 33 0.6 50 50 S 15 24 30.35 1028 10 16 0.00 0.00
1:53 pm 13:53 Sunny 53 11.7 32 0 45 45 S 15 24 30.31 1026 10 16 0.00 0.00
2:53 pm 14:53 Sunny 56 13.3 31 -0.6 39 39 S 21 33 30.27 1025 10 16 0.00 0.00
3:53 pm 15:53 Sunny 58 14.4 32 0 38 38 S 16 26 30.24 1024 10 16 0.00 0.00
4:53 pm 16:53 Sunny 58 14.4 32 0 38 38 S 21 33 30.23 1024 10 16 0.00 0.00
5:53 pm 17:53 Sunny 58 14.4 32 0 38 38 S 20 31 30.22 1023 10 16 0.00 0.00
6:53 pm 18:53 Sunny 56 13.3 32 0 40 40 S 14 22 30.22 1024 10 16 0.00 0.00
7:53 pm 19:53 Sunny 52 11.1 32 0 47 47 SSE 9 15 30.22 1024 10 16 0.00 0.00
8:53 pm 20:53 Clear 48 8.9 31 -0.6 52 52 SE 8 13 30.22 1023 10 16 0.00 0.00
9:53 pm 21:53 Clear 46 7.8 32 0 58 58 SE 8 13 30.22 1024 10 16 0.00 0.00
10:53 pm 22:53 Clear 47 8.3 31 -0.6 54 54 SE 13 20 30.22 1023 10 16 0.00 0.00
11:53 pm 23:53 Clear 45 7.2 31 -0.6 58 58 SE 9 15 30.21 1023 10 16 0.00 0.00

Powered by AerisWeather